Location: ????????
(54.6123°N, 39.2099°E)
Time: 02:00:21
(UTC+00:00)

Cosmos 1814 Rocket - Pass Details

Date: 19 May 2025
Orbit: 740 x 783 km, 74.1° (Epoch: 14 June)

Event Time Altitude Azimuth Distance (km) Brightness Sun altitude
Rises 18:06:30 0° 200° (SSW) 3,173 6.9 -4.8°
Reaches altitude 10° 18:08:50 10° 198° (SSW) 2,257 6.2 -5.1°
Maximum altitude 18:13:56 77° 114° (ESE) 777 4.0 -5.6°
Drops below altitude 10° 18:19:07 10° 29° (NNE) 2,296 6.7 -6.1°
Sets 18:21:31 0° 28° (NNE) 3,233 7.5 -6.3°
